Location: Passau
(48.5830°N, 13.4830°E)
Time: 13:42:43
(UTC+02:00)

Explorer 7 - All Passes

Search period start: 02 August 2021 00:00
Search period end: 12 August 2021 00:00
Orbit: 484 x 676 km, 50.3° (Epoch: 02 August)

Date Brightness Start Highest point End Pass type
(mag) Time Alt. Az. Time Alt. Az. Time Alt. Az.
02 Aug - 05:42:21 10° SSW 05:45:46 32° SE 05:49:18 10° E daylight
02 Aug - 07:22:06 10° WSW 07:25:58 84° NNW 07:30:03 10° ENE daylight
02 Aug - 09:02:38 10° WNW 09:06:36 70° N 09:10:50 10° E daylight
02 Aug - 10:43:04 10° WNW 10:47:07 58° SSW 10:51:25 10° SE daylight
02 Aug - 12:24:21 10° W 12:27:04 16° SW 12:29:53 10° S daylight
03 Aug - 04:09:48 10° SE 04:10:19 10° SE 04:10:50 10° SE visible
03 Aug - 05:46:19 10° SW 05:49:57 46° SSE 05:53:44 10° ENE daylight
03 Aug - 07:26:28 10° W 07:30:19 73° N 07:34:24 10° ENE daylight
03 Aug - 09:06:59 10° WNW 09:10:58 78° N 09:15:13 10° E daylight
03 Aug - 10:47:27 10° WNW 10:51:21 42° SSW 10:55:29 10° SE daylight
03 Aug - 12:30:09 10° WSW 12:31:07 11° SW 12:32:05 10° SW daylight
04 Aug - 04:11:58 10° S 04:14:20 16° SE 04:16:45 10° E visible
04 Aug - 05:50:27 10° WSW 05:54:12 64° SSE 05:58:06 10° ENE daylight
04 Aug - 07:30:50 10° W 07:34:42 68° N 07:38:46 10° E daylight
04 Aug - 09:11:19 10° WNW 09:15:19 89° SSW 09:19:34 10° ESE daylight
04 Aug - 10:51:55 10° W 10:55:32 30° SW 10:59:22 10° SSE daylight
05 Aug - 04:15:23 10° SSW 04:18:25 24° SE 04:21:33 10° E visible
05 Aug - 05:54:41 10° WSW 05:58:29 83° SSE 06:02:26 10° ENE daylight
05 Aug - 07:35:12 10° W 07:39:04 67° N 07:43:08 10° E daylight
05 Aug - 09:15:39 10° WNW 09:19:37 71° SSW 09:23:50 10° ESE daylight
05 Aug - 10:56:32 10° W 10:59:41 21° SW 11:02:58 10° S daylight
06 Aug - 04:19:09 10° SSW 04:22:34 34° SSE 04:26:05 10° E visible
06 Aug - 05:59:01 10° W 06:02:48 81° NNW 06:06:46 10° ENE daylight
06 Aug - 07:39:34 10° WNW 07:43:26 71° N 07:47:31 10° E daylight
06 Aug - 09:19:59 10° WNW 09:23:53 53° SSW 09:28:01 10° SE daylight
06 Aug - 11:01:32 10° WSW 11:03:46 14° SW 11:06:05 10° S daylight
07 Aug - 02:45:51 10° SSE 02:47:04 11° SE 02:48:18 10° ESE visible
07 Aug - 04:23:09 10° SW 04:26:47 49° SSE 04:30:30 10° ENE visible
07 Aug - 06:03:22 10° W 06:07:09 71° N 06:11:07 10° ENE daylight
07 Aug - 07:43:54 10° WNW 07:47:47 80° NNE 07:51:54 10° E daylight
07 Aug - 09:24:23 10° W 09:28:07 38° SSW 09:32:02 10° SE daylight
08 Aug - 02:48:34 10° S 02:51:07 18° SE 02:53:41 10° E visible
08 Aug - 04:27:19 10° WSW 04:31:01 68° SSE 04:34:51 10° ENE visible
08 Aug - 06:07:44 10° W 06:11:32 67° N 06:15:29 10° E daylight
08 Aug - 07:48:13 10° WNW 07:52:07 85° SSW 07:56:14 10° ESE daylight
08 Aug - 09:28:53 10° W 09:32:17 27° SW 09:35:51 10° SSE daylight
09 Aug - 02:52:04 10° SSW 02:55:13 26° SE 02:58:24 10° E visible
09 Aug - 04:31:34 10° WSW 04:35:19 87° SSE 04:39:11 10° ENE visible
09 Aug - 06:12:07 10° W 06:15:54 67° N 06:19:51 10° E daylight
09 Aug - 07:52:33 10° WNW 07:56:25 66° SSW 08:00:29 10° ESE daylight
09 Aug - 09:33:35 10° W 09:36:25 19° SW 09:39:20 10° S daylight
10 Aug - 02:55:55 10° SW 02:59:23 37° SSE 03:02:54 10° E visible
10 Aug - 04:35:54 10° W 04:39:39 78° N 04:43:31 10° ENE visible
10 Aug - 06:16:28 10° WNW 06:20:16 72° N 06:24:14 10° E daylight
10 Aug - 07:56:54 10° WNW 08:00:40 48° SSW 08:04:37 10° SE daylight
10 Aug - 09:38:51 10° WSW 09:40:29 12° SW 09:42:09 10° SSW daylight
11 Aug - 01:22:08 10° SSE 01:23:49 13° SE 01:25:31 10° ESE visible
11 Aug - 02:59:57 10° SW 03:03:35 53° SSE 03:07:17 10° ENE visible
11 Aug - 04:40:16 10° W 04:44:00 69° N 04:47:52 10° ENE visible
11 Aug - 06:20:48 10° WNW 06:24:37 83° NNE 06:28:36 10° ESE daylight
11 Aug - 08:01:20 10° W 08:04:52 34° SSW 08:08:35 10° SSE daylight
